{"data":{"norad_id":69021,"intl_designator":"2026-100AT","name":"HELIOS","alt_names":[],"object_type":"PAYLOAD","status":"ACTIVE","operator":null,"country":"GREC","launch_date":"2026-05-03","launch_site_code":"AFWTR","launch_vehicle":null,"mission":null,"orbit_class":"UNKNOWN","rcs_meters":null,"size_class":null,"mass_kg":null,"dimensions":null,"purposes":[],"wikipedia_slug":null,"has_3d_model":false,"image_url":null,"decayed_at":null,"tle_current":{"epoch":"2026-09-19T11:23:44.039328Z","epoch_age_seconds":108012,"freshness":"FRESH","line1":"1 69021U 26100AT  26262.47481527  .00004571  00000+0  20871-3 0  9990","line2":"2 69021  97.3885 158.4794 0005596  37.3050 322.8574 15.21075023 21135","mean_motion":15.21075023,"eccentricity":0.0005596,"inclination_deg":97.3885,"raan_deg":158.4794,"arg_perigee_deg":37.305,"mean_anomaly_deg":322.8574,"bstar":0.00020871,"rev_number":2113,"period_min":94.669886641088,"perigee_km":498.74626244847,"apogee_km":506.44717962906,"semimajor_km":6880.7337210388,"source":"CELESTRAK","updated_at":"2026-09-20T09:00:24.632527Z"}}}